Precipitable_Water
1.01 0.98 0.94 0.95 0.96 0.94 0.97 1.05 1.09 1.05 1.05 1.09 1.07 1.04 1.02 1.08 1.16 1.30 1.37 1.43 1.42 1.42 1.42 1.47 1.50 1.49 1.49 1.50 1.50 1.53 1.55 1.49 1.52 1.53 1.47 1.52 1.57 1.57 1.53 1.48 1.39 1.33
1.09 1.05 1.03 1.03 1.03 1.03 1.04 1.13 1.15 1.13 1.09 1.09 1.12 1.15 1.12 1.12 1.09 1.25 1.27 1.36 1.44 1.44 1.45 1.44 1.48 1.48 1.47 1.47 1.47 1.43 1.45 1.48 1.44 1.55 1.51 1.46 1.48 1.59 1.54 1.56 1.44 1.39
1.14 1.12 1.08 1.04 1.04 1.05 1.06 1.13 1.20 1.20 1.16 1.11 1.15 1.21 1.20 1.20 1.15 1.18 1.25 1.28 1.36 1.44 1.47 1.47 1.48 1.50 1.48 1.45 1.45 1.43 1.42 1.45 1.41 1.50 1.49 1.45 1.48 1.49 1.54 1.55 1.45 1.37
1.17 1.16 1.11 1.10 1.11 1.10 1.10 1.14 1.19 1.22 1.19 1.14 1.10 1.17 1.22 1.25 1.25 1.20 1.22 1.24 1.28 1.37 1.45 1.50 1.48 1.49 1.49 1.45 1.43 1.42 1.41 1.42 1.47 1.48 1.46 1.47 1.45 1.49 1.49 1.56 1.53 1.43
1.17 1.18 1.18 1.17 1.18 1.18 1.17 1.15 1.17 1.19 1.15 1.16 1.12 1.12 1.19 1.24 1.27 1.27 1.24 1.23 1.26 1.28 1.35 1.43 1.49 1.48 1.47 1.47 1.45 1.40 1.42 1.39 1.43 1.45 1.42 1.41 1.48 1.45 1.45 1.48 1.50 1.51
1.22 1.20 1.21 1.21 1.21 1.22 1.21 1.18 1.19 1.18 1.15 1.17 1.13 1.13 1.15 1.23 1.23 1.26 1.26 1.23 1.24 1.26 1.25 1.29 1.37 1.40 1.42 1.41 1.42 1.40 1.39 1.35 1.41 1.41 1.36 1.35 1.40 1.48 1.46 1.42 1.41 1.41
1.18 1.18 1.20 1.24 1.25 1.26 1.24 1.23 1.23 1.23 1.19 1.18 1.19 1.14 1.15 1.16 1.21 1.23 1.30 1.28 1.25 1.26 1.23 1.22 1.24 1.28 1.32 1.32 1.31 1.31 1.34 1.33 1.39 1.40 1.35 1.34 1.35 1.39 1.43 1.41 1.37 1.35
1.20 1.20 1.20 1.21 1.21 1.24 1.24 1.25 1.24 1.24 1.23 1.20 1.18 1.18 1.17 1.12 1.16 1.19 1.25 1.27 1.28 1.27 1.26 1.27 1.26 1.26 1.27 1.27 1.24 1.21 1.24 1.31 1.29 1.34 1.33 1.35 1.37 1.30 1.30 1.36 1.39 1.34
1.24 1.22 1.22 1.20 1.18 1.20 1.20 1.24 1.24 1.24 1.26 1.19 1.18 1.17 1.18 1.14 1.13 1.15 1.20 1.22 1.22 1.25 1.25 1.27 1.28 1.29 1.27 1.23 1.19 1.15 1.13 1.17 1.20 1.20 1.25 1.29 1.33 1.33 1.31 1.31 1.29 1.32
1.21 1.24 1.22 1.21 1.17 1.18 1.16 1.23 1.26 1.23 1.25 1.22 1.17 1.18 1.14 1.15 1.14 1.13 1.19 1.19 1.17 1.20 1.18 1.19 1.25 1.23 1.21 1.19 1.15 1.12 1.10 1.11 1.16 1.15 1.14 1.18 1.24 1.28 1.29 1.28 1.23 1.21
1.16 1.20 1.20 1.19 1.17 1.18 1.17 1.21 1.25 1.24 1.22 1.21 1.16 1.16 1.16 1.13 1.14 1.12 1.13 1.16 1.14 1.16 1.15 1.11 1.17 1.16 1.14 1.14 1.15 1.13 1.10 1.10 1.11 1.13 1.11 1.10 1.15 1.21 1.25 1.22 1.22 1.22
1.14 1.14 1.15 1.16 1.16 1.18 1.18 1.20 1.24 1.24 1.20 1.20 1.18 1.12 1.17 1.15 1.13 1.12 1.10 1.10 1.11 1.13 1.16 1.11 1.12 1.13 1.12 1.11 1.11 1.11 1.10 1.11 1.12 1.10 1.09 1.07 1.07 1.12 1.16 1.20 1.18 1.18
1.15 1.12 1.12 1.15 1.18 1.21 1.24 1.24 1.23 1.24 1.23 1.17 1.17 1.11 1.13 1.15 1.12 1.13 1.15 1.11 1.08 1.09 1.10 1.11 1.09 1.11 1.11 1.09 1.09 1.10 1.09 1.08 1.10 1.10 1.07 1.06 1.06 1.07 1.11 1.15 1.16 1.20
1.24 1.18 1.17 1.16 1.19 1.21 1.26 1.28 1.24 1.24 1.27 1.24 1.20 1.11 1.08 1.14 1.14 1.11 1.15 1.17 1.12 1.08 1.08 1.10 1.08 1.08 1.09 1.08 1.07 1.07 1.07 1.06 1.06 1.09 1.07 1.05 1.04 1.07 1.11 1.15 1.18 1.18
1.39 1.32 1.26 1.21 1.20 1.19 1.22 1.25 1.24 1.25 1.30 1.29 1.22 1.15 1.11 1.09 1.18 1.18 1.13 1.14 1.17 1.12 1.11 1.12 1.09 1.06 1.07 1.06 1.02 1.01 1.03 1.03 1.03 1.03 1.03 1.02 1.02 1.05 1.10 1.13 1.18 1.23
1.49 1.43 1.33 1.27 1.22 1.17 1.18 1.21 1.24 1.26 1.28 1.30 1.25 1.20 1.17 1.10 1.10 1.20 1.18 1.13 1.15 1.15 1.14 1.13 1.11 1.09 1.05 1.03 0.99 0.95 0.96 0.98 1.02 1.02 1.02 1.01 1.01 1.01 1.05 1.12 1.15 1.17
1.55 1.49 1.44 1.34 1.26 1.22 1.19 1.20 1.22 1.26 1.26 1.28 1.28 1.24 1.19 1.15 1.12 1.18 1.20 1.18 1.14 1.14 1.11 1.11 1.13 1.11 1.06 1.01 0.95 0.94 0.93 0.93 0.95 1.00 1.01 1.01 1.01 1.00 0.96 1.00 1.07 1.12
1.59 1.55 1.48 1.42 1.37 1.27 1.21 1.20 1.23 1.25 1.23 1.24 1.27 1.25 1.22 1.20 1.13 1.13 1.20 1.23 1.20 1.19 1.14 1.10 1.11 1.13 1.08 1.01 0.97 0.94 0.93 0.91 0.93 0.96 1.01 1.01 1.01 1.00 1.00 0.98 0.98 1.04
1.65 1.59 1.52 1.47 1.44 1.37 1.30 1.24 1.22 1.23 1.21 1.20 1.22 1.26 1.25 1.20 1.14 1.12 1.13 1.21 1.24 1.19 1.17 1.15 1.10 1.12 1.10 1.04 0.98 0.96 0.94 0.93 0.92 0.92 0.94 0.99 1.00 0.99 0.98 0.98 0.96 0.94
1.68 1.62 1.56 1.52 1.50 1.47 1.40 1.30 1.23 1.21 1.22 1.22 1.23 1.27 1.25 1.22 1.20 1.15 1.13 1.14 1.21 1.23 1.19 1.20 1.19 1.15 1.11 1.05 0.99 0.95 0.94 0.94 0.93 0.94 0.94 0.96 1.02 1.03 1.01 0.98 0.97 0.94
1.69 1.64 1.59 1.57 1.55 1.53 1.49 1.41 1.31 1.26 1.25 1.25 1.23 1.23 1.25 1.25 1.22 1.19 1.17 1.16 1.17 1.25 1.25 1.20 1.22 1.22 1.18 1.12 1.07 1.01 0.97 0.95 0.96 0.99 1.01 1.01 1.05 1.11 1.09 1.04 1.01 1.00
1.69 1.67 1.65 1.60 1.57 1.56 1.53 1.47 1.41 1.33 1.27 1.28 1.25 1.26 1.31 1.34 1.32 1.28 1.22 1.19 1.18 1.18 1.22 1.21 1.22 1.24 1.21 1.16 1.11 1.08 1.08 1.08 1.05 1.00 0.98 1.04 1.10 1.12 1.13 1.13 1.10 1.06
1.71 1.69 1.68 1.64 1.60 1.55 1.53 1.52 1.47 1.43 1.38 1.35 1.25 1.25 1.26 1.28 1.29 1.28 1.28 1.24 1.21 1.18 1.15 1.18 1.22 1.24 1.24 1.20 1.15 1.13 1.14 1.14 1.10 1.03 0.98 0.97 1.05 1.13 1.17 1.20 1.18 1.13
1.73 1.73 1.69 1.67 1.63 1.55 1.54 1.57 1.58 1.53 1.44 1.40 1.27 1.25 1.27 1.28 1.30 1.29 1.29 1.27 1.23 1.19 1.15 1.12 1.18 1.23 1.21 1.20 1.16 1.16 1.16 1.13 1.10 1.05 1.00 0.96 0.97 1.05 1.11 1.14 1.16 1.15
1.78 1.75 1.72 1.69 1.66 1.62 1.62 1.62 1.61 1.57 1.51 1.45 1.33 1.30 1.32 1.34 1.31 1.27 1.25 1.28 1.28 1.26 1.25 1.16 1.13 1.20 1.19 1.18 1.16 1.15 1.17 1.18 1.15 1.10 1.03 1.01 0.97 0.94 0.98 1.02 1.06 1.09
1.75 1.76 1.75 1.72 1.70 1.71 1.71 1.73 1.76 1.66 1.57 1.49 1.39 1.31 1.26 1.27 1.30 1.29 1.26 1.25 1.28 1.27 1.27 1.24 1.16 1.18 1.16 1.14 1.12 1.11 1.14 1.16 1.17 1.10 1.03 1.03 1.04 1.01 0.96 0.96 0.97 0.98
Wind_Speed
23 22 21 21 20 19 19 18 17 17 16 15 14 13 12 11 10 9 9 8 8 8 7 7 6 6 5 4 4 4 3 2 2 2 2 2 2 2 2 2 2 2
23 22 22 21 21 20 20 19 18 18 17 16 14 13 13 12 11 10 10 9 8 8 8 7 7 6 6 5 5 4 3 3 2 2 2 2 2 2 1 2 2 2
24 23 23 22 22 21 21 20 19 18 18 17 16 14 13 13 12 12 11 10 9 8 8 8 7 7 6 6 5 5 4 4 3 2 2 2 2 2 2 2 2 1
24 24 23 23 22 22 21 21 20 19 19 18 17 16 15 14 13 13 12 11 10 9 9 8 8 7 7 6 6 5 5 5 4 3 3 3 2 2 2 2 2 2
25 24 24 23 23 22 22 21 21 21 20 19 18 17 16 15 14 14 14 13 12 11 10 9 9 8 8 7 7 6 6 6 5 5 4 3 3 3 3 2 2 2
25 24 24 24 23 23 22 22 22 21 21 20 19 18 17 17 16 15 15 14 13 12 12 11 10 10 9 9 8 8 7 7 6 6 5 5 4 4 3 3 3 3
25 25 24 24 24 23 23 23 22 22 21 21 20 20 19 18 18 17 16 15 14 14 13 13 12 11 10 10 9 9 8 8 8 7 7 6 6 5 5 4 4 4
26 25 25 24 24 24 23 23 23 22 22 21 21 20 20 20 19 19 18 17 16 15 14 14 13 12 12 11 11 10 10 9 9 9 8 8 7 7 7 6 6 6
27 26 25 25 24 24 24 23 23 22 22 22 22 21 21 21 20 20 19 18 17 16 16 15 14 13 13 12 12 11 11 11 10 10 10 9 9 9 8 8 7 7
27 27 27 26 25 24 24 24 23 23 22 22 22 22 21 21 21 21 20 20 19 18 17 16 15 15 14 13 13 12 12 12 11 11 11 11 11 10 10 10 9 9
27 27 27 27 26 25 25 24 23 23 22 22 22 22 22 22 22 21 21 21 20 19 18 18 17 16 15 14 14 13 13 13 12 12 12 12 12 12 12 11 11 10
27 27 28 28 27 27 26 25 24 23 23 23 23 23 22 22 22 22 22 22 21 20 20 19 18 17 16 16 15 14 14 14 13 13 13 13 13 13 13 13 12 12
26 27 27 28 28 27 27 26 25 24 23 23 23 23 23 22 23 22 22 22 22 21 21 20 19 18 18 17 16 15 15 14 14 14 14 14 13 13 14 14 14 13
25 25 26 27 27 27 27 27 26 25 24 24 24 24 24 23 23 23 23 22 23 22 22 21 20 20 19 18 17 16 16 15 15 15 14 14 14 14 14 15 15 15
23 24 25 25 26 27 27 27 27 26 26 25 25 24 24 24 23 23 23 23 23 23 22 22 21 21 20 19 19 18 17 16 16 15 15 15 14 14 14 15 15 15
23 23 23 24 25 26 27 26 27 27 27 26 26 25 25 24 24 23 23 23 23 23 23 22 22 22 21 21 20 19 18 17 17 16 16 15 15 15 15 15 15 16
23 23 23 23 24 25 26 26 26 27 27 26 26 26 26 25 25 24 24 23 23 23 23 23 23 22 22 22 21 20 19 18 18 17 17 16 16 15 15 15 15 16
24 24 23 23 23 24 25 26 26 26 27 27 27 27 27 26 26 25 25 24 23 24 24 23 23 23 23 23 22 21 20 20 19 18 18 17 17 16 16 16 16 16
24 24 24 23 23 23 24 25 25 26 26 27 27 27 27 27 27 26 26 25 24 24 24 24 24 24 24 23 23 22 21 20 20 19 19 18 18 17 17 16 16 16
25 25 24 24 23 23 23 24 25 25 25 26 26 27 27 27 27 27 27 26 25 24 24 24 24 24 24 24 23 23 22 21 20 20 19 19 18 18 17 17 16 16
25 25 25 24 24 24 23 23 24 24 25 25 26 26 27 27 27 27 27 27 26 25 24 24 24 24 24 24 24 24 23 22 21 21 20 19 19 18 18 18 17 17
26 26 25 25 24 24 24 24 24 24 24 25 25 26 26 27 27 27 27 27 27 26 25 25 24 24 25 25 25 24 23 22 22 22 21 20 19 19 19 18 18 18
27 26 26 26 25 24 24 24 24 24 24 24 25 25 25 26 27 27 27 28 28 28 27 26 25 25 25 25 25 25 23 22 22 23 23 22 21 20 19 19 19 19
28 27 26 26 26 25 25 25 25 24 24 24 24 25 25 26 27 27 27 27 28 28 28 27 26 25 26 26 26 25 24 23 23 23 23 23 23 22 22 21 20 21
28 27 27 27 26 26 25 25 25 25 25 24 24 25 24 25 25 26 27 27 27 28 28 28 27 27 27 27 27 26 26 25 24 24 23 23 23 24 24 23 23 23
29 28 27 27 26 26 25 25 25 25 26 25 25 25 25 24 25 25 26 26 27 27 28 28 28 27 28 28 28 27 27 26 25 24 24 24 24 24 24 24 24 24
Wind_Direction
212 213 213 213 213 213 212 212 213 215 216 215 215 216 216 214 210 207 209 210 207 205 207 206 206 206 201 197 194 190 183 171 169 163 155 159 160 155 157 146 137 140
213 213 214 214 215 215 215 214 214 216 217 217 217 217 218 217 213 210 209 209 207 204 204 205 204 204 202 198 194 192 187 180 177 174 164 164 168 166 163 161 154 149
213 213 214 215 216 217 216 216 216 217 218 219 217 217 218 218 215 212 209 209 209 206 203 205 205 205 205 202 200 199 197 193 192 193 186 176 178 181 175 172 178 176
213 214 214 216 217 218 218 217 217 217 219 220 219 218 218 218 216 214 212 211 211 210 207 207 208 208 209 209 209 208 208 207 205 206 206 199 195 199 201 195 199 207
214 215 215 216 217 219 219 218 218 218 219 220 221 220 219 218 217 216 215 214 213 213 212 211 213 213 214 216 216 215 216 217 216 215 216 216 214 217 223 224 219 217
214 215 215 217 217 218 219 219 219 219 219 220 221 222 220 219 218 217 217 217 216 216 216 216 217 219 220 222 222 222 222 223 222 221 220 223 226 227 231 236 238 234
215 215 215 217 217 218 219 220 220 220 220 221 221 222 222 220 219 218 219 220 219 219 220 221 222 223 224 226 227 228 228 228 227 226 226 227 229 234 237 240 243 243
216 216 216 217 218 219 220 221 221 221 221 221 221 222 222 221 220 220 220 221 221 222 223 224 225 228 229 229 230 231 232 233 232 232 233 232 232 236 239 241 244 245
216 217 217 217 218 220 220 221 222 222 222 221 221 221 222 223 222 221 221 222 223 224 224 226 228 230 233 234 233 233 234 236 236 235 236 237 236 237 240 242 244 246
216 217 218 218 219 220 221 221 222 222 222 221 221 221 222 223 223 223 223 223 224 225 226 227 229 231 234 236 236 236 236 237 238 238 238 239 241 241 243 245 245 246
216 218 219 219 220 221 221 221 221 222 223 222 221 221 221 222 223 224 224 224 224 226 227 229 230 231 233 236 238 239 239 239 239 240 240 241 242 243 245 247 248 249
217 218 219 220 221 221 221 222 221 222 223 223 223 222 221 222 223 224 225 225 226 226 227 229 230 232 234 236 238 239 240 241 241 242 243 244 244 244 246 248 249 250
217 218 219 220 221 221 221 221 222 222 223 224 224 223 222 222 223 224 225 226 227 228 228 229 230 232 234 236 238 239 240 242 243 244 245 246 247 247 247 248 249 250
217 218 219 220 220 221 221 221 222 223 224 225 226 225 224 224 224 224 226 226 227 229 229 230 230 232 234 236 238 239 240 241 243 245 246 247 248 249 249 249 249 250
217 218 219 219 220 221 221 222 223 223 224 225 226 226 226 226 225 225 226 227 228 229 230 231 231 232 234 236 238 239 240 241 243 245 246 247 249 250 251 251 250 249
217 218 219 219 220 221 222 222 223 223 224 225 226 227 228 227 227 227 227 228 228 229 230 231 232 233 234 235 236 239 240 241 242 244 247 249 250 251 252 252 251 251
218 219 219 219 221 221 222 223 223 223 224 225 226 227 228 228 228 228 228 229 229 230 231 232 233 234 234 234 236 238 240 242 243 244 246 249 251 252 253 254 253 252
219 219 219 220 221 222 223 223 223 224 224 225 225 226 227 228 229 229 230 230 230 231 232 233 234 233 233 234 236 237 239 241 243 244 245 248 251 252 253 254 255 254
220 220 220 221 222 222 224 224 224 225 225 225 225 226 227 228 229 230 230 231 231 231 232 234 235 234 233 234 236 238 239 241 244 245 246 247 250 253 253 254 255 256
221 221 221 222 222 223 224 224 225 226 226 226 226 226 226 227 228 229 230 231 232 232 233 234 235 234 233 234 236 238 239 241 243 245 247 248 249 251 253 254 255 256
221 222 222 222 222 223 224 225 225 226 227 227 227 227 227 227 228 229 230 231 233 233 234 235 235 234 234 235 237 238 239 241 243 245 247 249 250 251 252 254 255 256
222 222 223 223 223 223 225 226 226 226 228 228 228 228 228 228 228 229 230 231 232 234 235 236 235 234 233 236 238 238 240 241 243 244 246 249 250 251 252 253 254 256
222 223 223 224 224 224 225 226 227 227 228 229 229 229 229 229 228 228 230 231 232 233 235 236 237 234 233 235 237 238 240 242 243 244 246 248 249 251 252 253 253 255
222 224 225 225 225 226 226 227 227 227 228 229 229 230 229 229 229 229 230 231 232 233 234 236 237 235 233 234 236 237 239 242 243 244 246 248 249 251 252 253 254 255
222 224 225 226 227 227 227 228 228 228 229 230 230 230 230 230 230 230 231 232 232 233 234 235 237 236 235 235 236 237 238 241 243 244 246 248 250 251 253 254 255 256
223 224 225 226 227 227 228 228 229 229 229 230 230 230 230 230 230 230 231 232 233 234 234 235 236 237 236 236 237 238 239 240 242 244 245 248 250 252 253 254 255 256